[[{"header":{"parameterUnit":"m.s-1","parameterCategory":1,"la1":30.2991,"la2":30.254,"lo1":-89.0895,"lo2":-89.0444,"dy":0.0017,"dx":0.0017,"nx":28,"ny":28,"refTime":"2023-10-14T09:00:00:Z","depth":0,"parameterNumber":2,"parameterNumberName":"U-component_of_WINDS"},"data":[0,0,0,0,0,0,0,0,0,0,0,0,0,0,0,0,0,0,0,0,0,0,0,0,0,0,0,0,0,0,0,0,0,0,0,0,0,0,0,0,0,0,0,0,0,0,0,0,0,0,0,0,0,0,0,0,0,0,4.536,4.5361,0,4.539,4.539,4.5391,4.5347,4.5346,4.5344,4.5343,4.5373,4.5375,4.5377,0,0,0,0,0,0,0,0,0,0,0,0,0,4.527,4.5272,4.536,4.5361,4.5361,4.539,4.539,4.5391,4.5348,4.5346,4.5344,4.5342,4.5372,4.5375,4.5378,0,0,0,0,0,0,0,0,0,0,0,0,0,4.5305,4.5272,4.536,4.5343,4.5342,4.539,4.539,4.5391,4.5348,4.5346,4.5343,4.5341,4.5371,4.5375,4.5378,4.5444,0,0,4.5388,4.539,0,0,0,0,0,0,0,0,4.5303,4.5309,4.5345,4.5344,4.5343,4.5363,4.5369,4.5409,4.5348,4.5346,4.5343,4.534,4.5371,4.5375,4.5385,4.5446,4.5447,4.5388,4.539,4.5392,4.5393,0,0,0,0,0,0,0,4.5301,4.5307,4.5372,4.5346,4.5344,4.5335,4.5337,4.5377,4.5371,4.5346,4.5343,4.5347,4.537,4.5382,4.5385,4.5447,4.5388,4.5391,4.5393,4.5395,4.5571,4.5573,0,0,0,0,0,0,4.53,4.5305,4.5371,4.5373,4.5317,4.5338,4.5341,4.5359,4.537,4.537,4.5349,4.5345,4.5377,4.5382,4.5386,4.547,4.5392,4.5395,4.5397,4.5568,4.5571,4.5574,0,0,0,0,0,0,4.5298,4.5307,4.537,4.5338,4.5346,4.5342,4.5362,4.536,4.5372,4.5373,4.5371,4.5361,4.5376,4.5382,4.5432,4.547,4.5396,4.5399,4.5565,4.5569,4.5573,4.5634,0,0,0,0,0,0,4.5296,4.5306,4.533,4.5339,4.5348,4.5414,4.5364,4.5363,4.5378,4.5373,4.5384,4.5384,4.5374,4.5427,4.5435,4.5473,4.5402,4.5562,4.5567,4.5572,4.5628,4.5639,4.5649,0,0,0,0,0,4.5293,4.5344,4.5331,4.534,4.5377,4.5416,4.5421,4.5409,4.5381,4.5406,4.5408,4.5384,4.5464,4.5432,4.5441,4.5481,4.5559,4.5565,4.5571,4.5624,4.5637,4.5649,0,0,0,0,0,0,4.5338,4.5345,4.5331,4.5386,4.5401,4.5408,4.5439,4.5422,4.5445,4.5439,4.5423,4.5426,4.5481,4.5485,4.545,4.5549,4.5507,4.5515,4.5544,4.5557,4.5567,4.5566,4.5405,0,0,0,0,0,4.5355,4.5385,4.5389,4.5439,4.5447,4.5442,4.5458,4.5448,4.5463,4.5469,4.5473,4.5488,4.5518,4.5537,4.5563,4.5628,4.5633,4.5661,4.5671,4.5679,4.5687,4.5728,4.5742,4.5594,4.5594,4.5594,0,0,4.5389,4.5397,4.5416,4.5448,4.5458,4.5492,4.5447,4.5483,4.5509,4.5474,4.5523,4.5527,4.5544,4.5603,4.5629,4.5609,4.5729,4.5687,4.5694,4.5697,4.5736,4.575,4.5762,4.5598,4.5597,4.5597,0,0,4.547,4.5477,4.5522,4.5534,4.5551,4.5548,4.5559,4.557,4.5572,4.5621,4.5598,4.5628,4.5677,4.5692,4.5705,4.5798,4.5779,4.5807,4.5861,4.5901,4.5913,4.5923,4.5961,4.5974,4.5814,4.5815,4.5815,0,4.5511,4.556,4.5546,4.5586,4.5603,4.5574,4.5621,4.5633,4.5658,4.5671,4.5647,4.5713,4.5721,4.5786,4.581,4.582,4.5835,4.5806,4.5912,4.5922,4.5932,4.5968,4.5982,4.5818,4.5818,4.5817,4.5817,0,4.5612,4.5647,4.5681,4.5708,4.5728,4.5771,4.5766,4.5788,4.5778,4.5779,4.5832,4.5842,4.5873,4.5887,4.5875,4.5953,4.594,4.5914,4.5873,4.595,4.5984,4.5997,4.5823,4.5822,4.5821,4.582,0,0,4.5721,4.5743,4.5756,4.5771,4.579,4.5817,4.586,4.5892,4.5914,4.5932,4.5971,4.6016,4.5994,4.601,4.6001,4.6035,4.6115,4.6006,4.6006,4.603,4.6207,4.6229,4.6245,4.6102,4.6104,4.6106,4.6207,0,4.5805,4.5881,4.5873,4.5946,4.5981,4.5956,4.5995,4.6012,4.6015,4.6046,4.6049,4.6084,4.6049,4.606,4.6093,4.6098,4.6151,4.609,4.6141,4.6143,4.6141,4.6262,4.6284,4.6378,4.622,4.6222,4.6223,0,4.5913,4.594,4.6017,4.6036,4.605,4.6085,4.6116,4.6145,4.6166,4.6166,4.6187,4.6172,4.6219,4.6176,4.6243,4.6202,4.6222,4.6228,4.6232,4.6239,4.619,4.6276,4.6408,4.6424,4.6243,4.6242,4.624,0,4.5992,4.6045,4.61,4.6112,4.6134,4.616,4.6171,4.6189,4.621,4.6238,4.6252,4.6284,4.6303,4.6329,4.6325,4.6293,4.6396,4.635,4.64,4.6401,4.6425,4.6424,4.6566,4.6432,4.6431,4.6431,4.6431,0,4.6089,4.6138,4.6136,4.617,4.6227,4.6217,4.6273,4.6281,4.6298,4.6335,4.6315,4.635,4.6342,4.6378,4.6375,4.6434,4.6441,4.6445,4.6445,4.6449,4.645,4.6464,4.6459,4.6435,4.6434,4.6433,4.6433,0,4.6186,4.6186,4.6245,4.6262,4.6268,4.6309,4.6325,4.6359,4.6361,4.6409,4.642,4.6424,4.6466,4.6465,4.6511,4.651,4.6584,4.6574,4.6578,4.6577,4.663,4.6627,4.679,4.6813,4.6659,4.6661,4.6662,0,4.625,4.6288,4.6311,4.6335,4.6348,4.6386,4.6409,4.6402,4.6427,4.6457,4.6488,4.6528,4.656,4.6629,4.6638,4.6675,4.6668,4.6723,4.6673,4.6679,4.6675,4.6674,4.668,4.6733,4.6735,4.6736,4.6737,0,4.6365,4.6365,4.6398,4.6434,4.6463,4.649,4.6515,4.6535,4.6532,4.6562,4.6605,4.6631,4.6681,4.6723,4.676,4.6772,4.6757,4.6753,4.6767,4.6774,4.6777,4.6781,4.6609,4.6749,4.6748,4.6747,4.6747,4.6746,4.6451,4.6486,4.6509,4.6549,4.6568,4.6593,4.6628,4.6636,4.6672,4.6714,4.6707,4.6758,4.6782,4.683,4.6846,4.6887,4.6868,4.6888,4.6893,4.69,4.6908,4.6768,4.6893,4.6893,4.6892,4.6892,4.6892,0,4.657,4.6584,4.6621,4.6659,4.6691,4.6673,4.6701,4.673,4.6775,4.6799,4.6833,4.6886,4.6928,4.6941,4.6982,4.7013,4.7007,4.7024,4.7024,4.7029,4.692,4.6906,4.7029,4.7029,4.7029,4.7029,4.7029,4.7029,4.6635,4.6696,4.6699,4.677,4.6784,4.6834,4.6853,4.6878,4.6897,4.6958,4.6993,4.7002,4.7023,4.7067,4.7106,4.7109,4.7128,4.7149,4.715,4.7049,4.7035,4.7022,4.7009,4.7152,4.7152,4.7255,4.7256,4.7257]},{"header":{"parameterUnit":"m.s-1","parameterCategory":1,"la1":30.2991,"la2":30.254,"lo1":-89.0895,"lo2":-89.0444,"dy":0.0017,"dx":0.0017,"nx":28,"ny":28,"refTime":"2023-10-14T09:00:00:Z","depth":0,"parameterNumber":3,"parameterNumberName":"V-component_of_WINDS"},"data":[0,0,0,0,0,0,0,0,0,0,0,0,0,0,0,0,0,0,0,0,0,0,0,0,0,0,0,0,0,0,0,0,0,0,0,0,0,0,0,0,0,0,0,0,0,0,0,0,0,0,0,0,0,0,0,0,0,0,-1.3437,-1.3435,0,-1.3244,-1.3241,-1.3239,-1.325,-1.3253,-1.3256,-1.3259,-1.3047,-1.3039,-1.3031,0,0,0,0,0,0,0,0,0,0,0,0,0,-1.3805,-1.3798,-1.3437,-1.3435,-1.3432,-1.3244,-1.3241,-1.3239,-1.325,-1.3253,-1.3257,-1.326,-1.305,-1.304,-1.303,0,0,0,0,0,0,0,0,0,0,0,0,0,-1.3631,-1.3796,-1.3438,-1.3416,-1.3412,-1.3244,-1.3241,-1.3238,-1.3249,-1.3254,-1.3258,-1.3262,-1.3053,-1.3041,-1.3029,-1.2866,0,0,-1.2991,-1.2985,0,0,0,0,0,0,0,0,-1.3641,-1.3618,-1.3421,-1.3417,-1.3412,-1.3276,-1.3293,-1.3113,-1.3248,-1.331,-1.3259,-1.3264,-1.3119,-1.3101,-1.3055,-1.2856,-1.2847,-1.299,-1.2982,-1.2977,-1.2973,0,0,0,0,0,0,0,-1.3653,-1.3626,-1.336,-1.3418,-1.3413,-1.3412,-1.3392,-1.3259,-1.3192,-1.3305,-1.3306,-1.3284,-1.3117,-1.3067,-1.305,-1.2844,-1.299,-1.2979,-1.2971,-1.2966,-1.2502,-1.2497,0,0,0,0,0,0,-1.3672,-1.3636,-1.3366,-1.3354,-1.354,-1.3402,-1.3379,-1.3315,-1.3194,-1.318,-1.328,-1.3285,-1.3086,-1.3065,-1.3043,-1.2844,-1.2977,-1.2965,-1.2958,-1.2507,-1.2501,-1.2495,0,0,0,0,0,0,-1.368,-1.3648,-1.3374,-1.3495,-1.3461,-1.3391,-1.3318,-1.3309,-1.3259,-1.3175,-1.3162,-1.3242,-1.3089,-1.306,-1.2911,-1.2837,-1.296,-1.2948,-1.2512,-1.2505,-1.2498,-1.2447,0,0,0,0,0,0,-1.369,-1.365,-1.3591,-1.3494,-1.3454,-1.3249,-1.3314,-1.3302,-1.3239,-1.3244,-1.3136,-1.3122,-1.309,-1.293,-1.2899,-1.2822,-1.2938,-1.2519,-1.2509,-1.25,-1.2455,-1.2439,-1.2425,0,0,0,0,0,-1.3703,-1.3581,-1.3588,-1.3555,-1.3379,-1.3245,-1.3221,-1.3191,-1.3233,-1.3171,-1.3117,-1.3125,-1.2851,-1.2914,-1.2879,-1.2798,-1.2523,-1.2512,-1.2501,-1.2461,-1.2442,-1.2425,0,0,0,0,0,0,-1.3665,-1.3568,-1.3574,-1.3418,-1.334,-1.3247,-1.3167,-1.3171,-1.3076,-1.3083,-1.3045,-1.3021,-1.2871,-1.2819,-1.2892,-1.2634,-1.2692,-1.2673,-1.2673,-1.2654,-1.264,-1.2654,-1.2928,0,0,0,0,0,-1.364,-1.3544,-1.3462,-1.3331,-1.3293,-1.3237,-1.3177,-1.3161,-1.3077,-1.3043,-1.2978,-1.2893,-1.2787,-1.2718,-1.2616,-1.2448,-1.2423,-1.2375,-1.236,-1.2348,-1.2332,-1.2238,-1.2215,-1.2459,-1.2459,-1.246,0,0,-1.3584,-1.3519,-1.3459,-1.3322,-1.326,-1.3158,-1.3209,-1.3098,-1.302,-1.3024,-1.2881,-1.283,-1.2732,-1.2573,-1.2499,-1.2525,-1.226,-1.2334,-1.2325,-1.2315,-1.2225,-1.2201,-1.2181,-1.2452,-1.2453,-1.2454,0,0,-1.343,-1.3372,-1.3258,-1.3196,-1.3103,-1.3067,-1.304,-1.2946,-1.2914,-1.2771,-1.2772,-1.2677,-1.2496,-1.2427,-1.2367,-1.2189,-1.2193,-1.2157,-1.2078,-1.1987,-1.1968,-1.195,-1.1886,-1.1863,-1.2141,-1.2141,-1.2141,0,-1.3371,-1.3221,-1.3197,-1.3086,-1.3025,-1.303,-1.2911,-1.285,-1.2727,-1.2683,-1.2715,-1.249,-1.2424,-1.2248,-1.2205,-1.2157,-1.2122,-1.2168,-1.1973,-1.1956,-1.1939,-1.1877,-1.1853,-1.2137,-1.2138,-1.2138,-1.2138,0,-1.3153,-1.3048,-1.2966,-1.2853,-1.2782,-1.2667,-1.2623,-1.2553,-1.2544,-1.2503,-1.2356,-1.2278,-1.216,-1.2118,-1.2105,-1.1939,-1.1959,-1.1983,-1.2039,-1.1913,-1.1853,-1.1829,-1.2132,-1.2133,-1.2134,-1.2135,0,0,-1.2967,-1.2845,-1.2814,-1.2763,-1.2662,-1.2578,-1.2463,-1.2354,-1.2294,-1.2209,-1.211,-1.1958,-1.198,-1.1913,-1.1893,-1.1813,-1.1676,-1.1846,-1.1844,-1.1816,-1.1487,-1.1469,-1.1442,-1.1679,-1.1674,-1.1671,-1.1495,0,-1.2802,-1.2604,-1.2579,-1.2401,-1.2303,-1.2306,-1.2206,-1.2131,-1.209,-1.1998,-1.1951,-1.1844,-1.1883,-1.1842,-1.1764,-1.171,-1.1609,-1.1722,-1.1582,-1.1578,-1.1606,-1.1411,-1.1391,-1.1229,-1.1472,-1.1468,-1.1465,0,-1.2582,-1.2497,-1.231,-1.2224,-1.2181,-1.2092,-1.199,-1.1903,-1.1817,-1.1793,-1.172,-1.1709,-1.1587,-1.1651,-1.148,-1.1557,-1.1499,-1.1463,-1.1456,-1.144,-1.1513,-1.1388,-1.1177,-1.1152,-1.1429,-1.1431,-1.1434,0,-1.2465,-1.2302,-1.217,-1.2125,-1.2021,-1.1958,-1.1911,-1.183,-1.1766,-1.1675,-1.1632,-1.1526,-1.1468,-1.1385,-1.1345,-1.1395,-1.1176,-1.1236,-1.1149,-1.115,-1.1101,-1.1104,-1.0876,-1.1066,-1.1066,-1.1067,-1.1067,0,-1.2282,-1.2167,-1.2116,-1.2034,-1.1904,-1.1876,-1.1748,-1.1702,-1.163,-1.1537,-1.1532,-1.1444,-1.1398,-1.1302,-1.127,-1.1132,-1.1106,-1.108,-1.1073,-1.108,-1.1083,-1.1039,-1.1049,-1.106,-1.1062,-1.1063,-1.1064,0,-1.2127,-1.2089,-1.1945,-1.186,-1.1835,-1.1744,-1.1669,-1.1587,-1.1549,-1.1431,-1.1401,-1.1339,-1.1226,-1.1179,-1.1038,-1.1017,-1.0859,-1.086,-1.0889,-1.0886,-1.0801,-1.081,-1.0535,-1.0497,-1.0714,-1.0712,-1.0711,0,-1.2013,-1.1925,-1.1832,-1.1772,-1.1725,-1.1626,-1.1562,-1.1531,-1.1463,-1.136,-1.129,-1.1179,-1.1087,-1.0905,-1.0844,-1.0737,-1.0735,-1.0646,-1.0718,-1.0728,-1.0731,-1.0737,-1.0727,-1.0632,-1.063,-1.0628,-1.0627,0,-1.1813,-1.1799,-1.1709,-1.1612,-1.1537,-1.1458,-1.138,-1.133,-1.1286,-1.121,-1.1097,-1.1026,-1.0885,-1.0773,-1.0662,-1.0609,-1.0609,-1.0605,-1.0579,-1.0584,-1.0604,-1.0591,-1.0851,-1.0611,-1.0612,-1.0614,-1.0614,-1.0615,-1.1673,-1.1596,-1.1519,-1.1419,-1.1359,-1.1287,-1.1208,-1.1161,-1.1068,-1.0954,-1.094,-1.0818,-1.0733,-1.0586,-1.0528,-1.043,-1.0452,-1.0414,-1.0404,-1.0395,-1.0389,-1.0622,-1.041,-1.041,-1.041,-1.0411,-1.0411,0,-1.1472,-1.1424,-1.1333,-1.1227,-1.1148,-1.1161,-1.1076,-1.1007,-1.0902,-1.0825,-1.0737,-1.0606,-1.0498,-1.043,-1.032,-1.0254,-1.0252,-1.0226,-1.023,-1.0217,-1.0376,-1.041,-1.0231,-1.0231,-1.0231,-1.0231,-1.0231,-1.0231,-1.1358,-1.1228,-1.1205,-1.1044,-1.0995,-1.088,-1.083,-1.0763,-1.0703,-1.0559,-1.047,-1.0429,-1.0355,-1.024,-1.014,-1.0123,-1.0081,-1.0055,-1.0038,-1.0188,-1.0206,-1.0224,-1.0255,-1.0046,-1.0046,-0.9887,-0.9886,-0.9885]}]]